Team logos
Guidelines for entries Team Leaderboard Add or Update a Person FAQ
Jul 2021 - A long rest for the wicked.
This challenge was chosen by Sub7


Row 7000 metres with 7 mins rest between reps
One rep is 5000 metres
One rep is 2000 metres
You choose the order to row them
One rep (of your choice) to be done at 20 strokes per minute


Record your time for 7000 metres

If the stroke rate goes over 20 SPM then add 30 seconds to your time (21 spm =30sec, 22 spm = 1 minute, etc)


The August challenge will be chosen by Isenhurst Rowers
See C2 forum thread for details.

Most Recent EntriesAdd/Update an Entry
DateNameCatTeamResult
2021-07-29Siobhan AherneFHWTDiamonds 36:56.4
2021-07-29Donn RasemanMHWTDiamonds 29:06.8
2021-07-29Deidre WFHWTThe Delivery Room 28:42.3
2021-07-29Justin FarinaMHWTGARAGEATHLETE 24:01.9
2021-07-29Morten HaugsengMHWTFitness Matters 26:00.6
Bold = new time; italic = updated time
Name:
Password:
Entry: hours min sec
 
Current Leaderboard
Names in blue italics have added or updated their times within the past 24 hours.
#NameCatTeamResultPacePower
1Jason MarshallMGARAGEATHLETE I 22:44.1   1:37.4  378.4 
2NZ - Andy TomlinsonMTe Waka Aotearoa I 23:10.7   1:39.3  357.1 
3Jack TrimbleMMAD I 23:12.0   1:39.4  356.1 
4Tim Perkins FMMFitness Matters I 23:28.4   1:40.6  343.8 
5Andy BenkoMPaddy Power I 23:42.4   1:41.6  333.7 
6Cameron WharramMTeam Oarsome I 23:44.5   1:41.8  332.2 
7Ian FisherMSub 7 I 23:47.1   1:41.9  330.4 
8Andrew MorleyMSub 7 I 23:47.3   1:42.0  330.3 
9Lewin2MSub 7 I 23:55.4   1:42.5  324.7 
10Keith DarbymRed Line Rowers I 23:59.2   1:42.8  322.2 
11Justin FarinaMGARAGEATHLETE I 24:01.9   1:43.0  320.4 
12Tobias StöhrMGermania I 24:07.8   1:43.4  316.5 
13Ben JagoMSub 7 II 24:08.9   1:43.5  315.7 
14Dylan DragswiekMSub 7 II 24:11.4   1:43.7  314.1 
15Freddie H lwtmMAD I 24:15.4   1:44.0  311.5 
16Mark FountaineMSub 7 II 24:20.2   1:44.3  308.5 
17Ian Gallagher TDRMThe Delivery Room I 24:21.3   1:44.4  307.8 
18Warren MatthewsMSub 7 III 24:27.6   1:44.8  303.8 
19Patrick HallMMAD I 24:28.0   1:44.9  303.6 
20Roy JonesMMAD I 24:28.9   1:44.9  303.0 
21Alan DenbyMSub 7 III 24:31.7   1:45.1  301.3 
22Simon HandleyMMAD II 24:37.8   1:45.6  297.6 
23Matthew DollMFirm Fitness I 24:38.3   1:45.6  297.3 
24Joshua Flood FMMFitness Matters I 24:40.7   1:45.8  295.8 
25Matt DickieMSub 7 III 24:45.8   1:46.1  292.8 
26Rob PhillipsMSub 7 IV 24:46.9   1:46.2  292.2 
27Jon MelsonMDLC Gidea Park I 24:48.3   1:46.3  291.3 
28Simon M HarrisonMSub 7 IV 24:53.4   1:46.7  288.4 
29VgueretMFIRT I 24:54.6   1:46.8  287.7 
30Ian WildeMSub 7 IV 24:54.9   1:46.8  287.5 
31Giles Clarke (RLR)MRed Line Rowers I 24:55.6   1:46.8  287.1 
32Casey ClarkeMSub 7 V 24:55.8   1:46.8  287.0 
33Bradley Perry frenchmMAD II 24:57.3   1:47.0  286.1 
34BlanksbyFMMFitness Matters I 24:57.7   1:47.0  285.9 
35Harbour RatMGee Crew I 24:58.3   1:47.0  285.5 
36sjoerd plagmeijerMFree Spirits I 25:00.3   1:47.2  284.4 
37Dan Winney TDRMThe Delivery Room I 25:00.3   1:47.2  284.4 
38Loic ShalbetterMFitness Matters II 25:01.2   1:47.2  283.9 
39..IDR TDWMThe Delivery Room I 25:01.8   1:47.3  283.5 
40Ade Peel TO x1MTeam Oarsome I 25:13.4   1:48.1  277.1 
41Kevin CarterMSub 7 V 25:15.4   1:48.2  276.0 
42MartinB FFMForum Flyers I 25:15.9   1:48.3  275.7 
43Jorn Gunnar KlevenMSub 7 V 25:18.4   1:48.5  274.3 
44Richard SAMThe Delivery Room II 25:20.0   1:48.6  273.5 
45Harry WilkesMSub 7 VI 25:20.6   1:48.6  273.2 
46ClaudiusmFree Spirits I 25:23.6   1:48.8  271.5 
47Guillaume DauphinMPaddy Power I 25:31.4   1:49.4  267.4 
48John WalshMSub 7 VI 25:38.7   1:49.9  263.6 
49Carl A RaisenMTeam Oarsome I 25:40.5   1:50.0  262.7 
50Kay BieriMC2TweetCrew I 25:42.2   1:50.2  261.8 
51Nick ThomasMErgo Ergo Sum I 25:44.9   1:50.4  260.5 
52Graham SimsMTe Waka Aotearoa I 25:46.2   1:50.4  259.8 
53Pete MarstonMMAD II 25:48.0   1:50.6  258.9 
54Bergur JensenmSub 7 I 25:50.8   1:50.8  257.5 
55Alastair Peake FMmFitness Matters I 25:51.1   1:50.8  257.4 
56tony walpoleMFitness Matters II 25:51.3   1:50.8  257.3 
57Paul NuttallMFitness Matters II 25:53.4   1:51.0  256.2 
58Alex Winser TDRmThe Delivery Room I 25:54.2   1:51.0  255.8 
59Jonty EyresMIsenhurst Rowers I 25:55.5   1:51.1  255.2 
60Matt RawlinsonMSub 7 VI 25:56.7   1:51.2  254.6 
61meurice robinson RLRmRed Line Rowers I 25:57.1   1:51.2  254.4 
62Justin Nickel FMmFitness Matters II 25:57.4   1:51.2  254.2 
63Andy ParkesMGee Crew I 25:57.9   1:51.3  254.0 
64Josh Skversky FMMFitness Matters III 25:58.9   1:51.4  253.5 
65Jake LuceMSub 7 VII 25:59.2   1:51.4  253.4 
66Morten HaugsengMFitness Matters III 26:00.6   1:51.5  252.7 
67Leif HagenmRed Line Rowers I 26:02.6   1:51.6  251.7 
68Matt GillMSub 7 VII 26:04.2   1:51.7  250.9 
69Sanjuan aip-perpignanMFIRT I 26:04.5   1:51.8  250.8 
70Mark WhitemanMFitness Matters III 26:06.5   1:51.9  249.8 
71Bezza RLRmRed Line Rowers II 26:09.8   1:52.1  248.3 
72Marc WilsonMForum Flyers I 26:10.2   1:52.2  248.1 
73Richard PruceMSub 7 VII 26:10.3   1:52.2  248.0 
74Nigel FarmerMForum Flyers I 26:14.0   1:52.4  246.3 
75RougeMGee Crew I 26:14.0   1:52.4  246.3 
76Dave ChmilowskyjMTeam Oarsome II 26:14.5   1:52.5  246.1 
77Gregory CookmTeam Oarsome I 26:15.1   1:52.5  245.8 
78Patrik GustafssonMFitness Matters IV 26:15.8   1:52.6  245.4 
79Bianca Piloseno MADFMAD I 26:16.6   1:52.6  245.1 
80Troy FrerichsMTeam Oarsome II 26:16.7   1:52.6  245.0 
81Dingeman WiertzmErgo Ergo Sum I 26:16.9   1:52.6  244.9 
82Matthew LeonardMFree Spirits I 26:17.2   1:52.7  244.8 
83Matej ČambalMGARAGEATHLETE I 26:17.9   1:52.7  244.5 
84NZ - Ross SmithMTe Waka Aotearoa I 26:18.3   1:52.7  244.3 
85B McAuleymFitness Matters III 26:19.2   1:52.8  243.9 
86MerciermFIRT I 26:20.3   1:52.9  243.4 
87James ClarkeMFitness Matters IV 26:20.6   1:52.9  243.2 
88Martin StillMSub 7 VIII 26:21.0   1:52.9  243.0 
89Paul PeppardMSub 7 VIII 26:21.1   1:52.9  243.0 
90James HowardmSub 7 II 26:23.2   1:53.1  242.0 
91BertrandmFIRT I 26:25.6   1:53.3  240.9 
92Matthew James FullerMThe Delivery Room II 26:26.1   1:53.3  240.7 
93harrythehamsterMForum Flyers II 26:29.1   1:53.5  239.3 
94Glyn LloydmSub 7 III 26:29.9   1:53.6  239.0 
95Peter ClowesMTeam Oarsome II 26:31.8   1:53.7  238.1 
96Jack SandersonMDiamonds I 26:33.8   1:53.8  237.2 
97Russ StewartMDiamonds I 26:34.8   1:53.9  236.8 
98Kevin James FMMFitness Matters IV 26:36.2   1:54.0  236.2 
99Mike Pearce (MPx)MSub 7 VIII 26:36.5   1:54.0  236.0 
100Kevinhorne44MFree Spirits I 26:39.5   1:54.3  234.7 
101Marc Charman FMmFitness Matters IV 26:39.7   1:54.3  234.6 
102Allan HallbergMForum Flyers II 26:40.9   1:54.4  234.1 
103Steven RichieMSub 7 IX 26:42.9   1:54.5  233.2 
104Mac McNelisMSub 7 IX 26:42.9   1:54.5  233.2 
105Paul SandsMRed Line Rowers II 26:43.0   1:54.5  233.2 
106Laura TinglefFitness Matters I 26:44.8   1:54.6  232.4 
107Rowland Hills (RLR)MRed Line Rowers II 26:49.7   1:55.0  230.3 
108Andy BurrowsMTeam Oarsome III 26:53.8   1:55.3  228.5 
109Richard SteventonMSub 7 IX 26:54.2   1:55.3  228.3 
110Steve SmithMFree Spirits II 26:54.5   1:55.3  228.2 
111Jeremy MartinMDiamonds I 26:56.6   1:55.5  227.3 
112Glynn PowellMSub 7 X 26:58.4   1:55.6  226.6 
113SpidermacmFree Spirits II 27:00.3   1:55.7  225.8 
114patrice CORNUTmFIRT II 27:00.4   1:55.7  225.7 
115Martin KellyMSub 7 X 27:11.0   1:56.5  221.4 
116Russell JonesMRed Line Rowers II 27:11.8   1:56.6  221.0 
117Jake DolphinMFitness Matters V 27:15.0   1:56.8  219.7 
118NZ - Alex NicholsonmTe Waka Aotearoa I 27:16.0   1:56.9  219.3 
119Jon SarcheMForum Flyers II 27:16.2   1:56.9  219.3 
120Andy ColeMGee Crew II 27:16.7   1:56.9  219.1 
121Ken sMDiamonds II 27:17.1   1:56.9  218.9 
122Graham FrenchMIsenhurst Rowers I 27:18.9   1:57.1  218.2 
123Dave JubbmDiamonds I 27:20.7   1:57.2  217.5 
124Adam YalowichmFitness Matters V 27:23.0   1:57.4  216.5 
125LeoD OConnormDiamonds II 27:24.6   1:57.5  215.9 
126Andy OsborneMIsenhurst Rowers I 27:25.2   1:57.5  215.7 
127Mike WinnMDiamonds II 27:26.8   1:57.6  215.0 
128David GiggMRed Line Rowers III 27:27.7   1:57.7  214.7 
129Karl Hoods TDRmThe Delivery Room II 27:28.0   1:57.7  214.6 
130Richard WolfMForum Flyers III 27:30.6   1:57.9  213.6 
131Ryan McCormack TDRMThe Delivery Room II 27:31.1   1:57.9  213.4 
132Chris NewberrymFree Spirits II 27:32.2   1:58.0  212.9 
133Anna LwtfThe Delivery Room I 27:32.5   1:58.0  212.8 
134Rob Palk Sub 7MSub 7 X 27:32.9   1:58.1  212.7 
135SpikemForum Flyers I 27:37.2   1:58.4  211.0 
136Justin EspositoMFirm Fitness I 27:37.4   1:58.4  210.9 
137Stephen Perkins FMMFitness Matters V 27:37.6   1:58.4  210.9 
138Steve OckerbyMForum Flyers III 27:40.3   1:58.6  209.8 
139CrushyMFree Spirits II 27:40.3   1:58.6  209.8 
140Paul MortonmSub 7 IV 27:40.5   1:58.6  209.8 
141Phil RaynerMIsenhurst Rowers II 27:40.6   1:58.6  209.7 
142Robert JonesMSub 7 XI 27:41.3   1:58.7  209.5 
143Robert HenmanMDiamonds II 27:42.1   1:58.7  209.2 
144Rich EnnersMDiamonds III 27:43.0   1:58.8  208.8 
145Gary SmithmIsenhurst Rowers I 27:46.0   1:59.0  207.7 
146NZ - Aaron DonelleyMTe Waka Aotearoa II 27:47.6   1:59.1  207.1 
147Benita ClausenFSub 7 I 27:48.2   1:59.2  206.9 
148Jon P TaylormFree Spirits III 27:48.4   1:59.2  206.8 
149Peter WeissMFree Spirits III 27:51.4   1:59.4  205.7 
150Heather K KentonfFirm Fitness I 27:51.4   1:59.4  205.7 
151Graham SpittleMDiamonds III 27:52.2   1:59.4  205.4 
152Peter B. MitchellMDiamonds III 27:52.6   1:59.5  205.2 
153Kevin HillmanMEmpty the Tanks I 27:55.0   1:59.6  204.4 
154Rod Chinn mMAD II 27:55.8   1:59.7  204.1 
155Mirella McGeeFSub 7 II 27:56.9   1:59.8  203.7 
156Pete WilliamsMDiamonds IV 27:57.6   1:59.8  203.4 
157Paul Timmons FFCmFirm Fitness I 27:57.9   1:59.9  203.3 
158Eric AugustMSub 7 XI 27:58.1   1:59.9  203.2 
159Roger RogneMFitness Matters V 28:00.1   2:00.0  202.5 
160Frank NoorlanderMForum Flyers III 28:00.1   2:00.0  202.5 
161Paul GouldMFree Spirits III 28:03.7   2:00.3  201.2 
162Sam WillettsMRed Line Rowers III 28:03.8   2:00.3  201.2 
163Scott RoyalMFirm Fitness I 28:03.9   2:00.3  201.1 
164Paul Febery FMmFitness Matters VI 28:09.3   2:00.7  199.2 
165Chris BarclayMFitness Matters VI 28:09.4   2:00.7  199.2 
166Tim MontogomeryMDiamonds IV 28:10.4   2:00.7  198.8 
167LiefcatMFree Spirits III 28:10.6   2:00.8  198.8 
168Jim McCarthyMDiamonds IV 28:17.9   2:01.3  196.2 
169Matt NewmanmTeam Oarsome II 28:19.8   2:01.4  195.6 
170George Bingham (RLR LWT)mRed Line Rowers III 28:22.8   2:01.6  194.5 
171davidmarksMPaddy Power I 28:25.6   2:01.8  193.6 
172Will HaskellmForum Flyers II 28:27.5   2:02.0  192.9 
173Marc VoorheesmForum Flyers III 28:27.7   2:02.0  192.8 
174Neil LittlemDiamonds III 28:27.7   2:02.0  192.8 
175James SlipetzMForum Flyers IV 28:28.2   2:02.0  192.7 
176Rich InsleymThe Chain Pullers I 28:33.1   2:02.4  191.0 
177ESPRIT - Audrey FerecFESPRIT I 28:34.3   2:02.5  190.6 
178Mike ForderMDiamonds V 28:37.5   2:02.7  189.6 
179Richard MilnermRed Line Rowers III 28:40.4   2:02.9  188.6 
180Charlotte PiggFMAD II 28:40.7   2:02.9  188.5 
181Deidre WFThe Delivery Room II 28:42.3   2:03.0  188.0 
182Janette LoweFTeam Oarsome I 28:42.6   2:03.0  187.9 
183Wayne E. CalvertMDiamonds V 28:43.2   2:03.1  187.7 
184Chris WhaleMForum Flyers IV 28:43.5   2:03.1  187.6 
185IainmFree Spirits IV 28:50.0   2:03.6  185.5 
186Steve MotznyMAge Without Limits I 28:50.1   2:03.6  185.5 
187GafferMAge Without Limits I 28:53.0   2:03.8  184.5 
188Paul.LeemDiamonds IV 28:56.5   2:04.0  183.4 
189macrothMForum Flyers IV 28:57.6   2:04.1  183.1 
190Tako LootsmaMFitness Matters VI 29:03.8   2:04.6  181.1 
191Joe A KeatingmPaddy Power I 29:04.9   2:04.6  180.8 
192Donn RasemanMDiamonds V 29:06.8   2:04.8  180.2 
193David PlumbmFree Spirits IV 29:07.4   2:04.8  180.0 
194Tereza HorejsovaFTeam Oarsome II 29:07.7   2:04.8  179.9 
195Paul FreemanmDiamonds V 29:08.1   2:04.9  179.8 
196Kyle VoorheesMForum Flyers V 29:09.0   2:04.9  179.5 
197Graham Fisher RLR LeedsMRed Line Rowers IV 29:12.9   2:05.2  178.3 
198Jackie HamerFSub 7 III 29:16.7   2:05.5  177.2 
199macrothskiMSki Erg I 29:17.5   2:05.5  176.9 
200Sue ElleryFIsenhurst Rowers I 29:17.7   2:05.6  176.9 
201LauraH21 GhiòfThe Italian Team I 29:18.1   2:05.6  176.7 
202Tony LorrimermGee Crew I 29:20.0   2:05.7  176.2 
203Graham JohnsonmFitness Matters VI 29:21.8   2:05.8  175.6 
204.Jules BaileyFTeam Oarsome III 29:22.8   2:05.9  175.3 
205MBrownjohnmDiamonds VI 29:23.2   2:05.9  175.2 
206Allen HmFree Spirits IV 29:23.3   2:06.0  175.2 
207Arlene Wade (TO)fTeam Oarsome III 29:27.3   2:06.2  174.0 
208Josh VoorheesmForum Flyers IV 29:28.1   2:06.3  173.8 
209David KeckMFirm Fitness II 29:30.9   2:06.5  172.9 
210AMNW Ian NorthcottMMercian Nordic Walking I 29:32.9   2:06.6  172.3 
211Terry FFmForum Flyers V 29:35.0   2:06.8  171.7 
212Lesley DuffyFFree Spirits I 29:38.3   2:07.0  170.8 
213Derek KerrMDiamonds VI 29:44.6   2:07.5  169.0 
214Andrew PeetMDiamonds VI 29:45.0   2:07.5  168.9 
215Steve DelfsMDiamonds VI 29:47.4   2:07.7  168.2 
216Peter Schmitt.MDiamonds VII 29:48.6   2:07.8  167.8 
217Peter TullettmFree Spirits IV 29:48.9   2:07.8  167.8 
218Louise Barber1409fFitness Matters II 29:48.9   2:07.8  167.8 
219OldFatherTyneMDiamonds VII 29:53.3   2:08.1  166.5 
220Will WrightMDiamonds VII 30:00.5   2:08.6  164.5 
221Andy FlewittMGee Crew II 30:00.9   2:08.6  164.4 
222Greg PawlasMDiamonds VIII 30:05.0   2:08.9  163.3 
223Claudia.VicarsFFitness Matters III 30:06.0   2:09.0  163.0 
224Sabine PatissierFFIRT I 30:06.7   2:09.1  162.9 
225LindsayhMForum Flyers V 30:09.8   2:09.3  162.0 
226Amon SUB7 IRCfSub 7 IV 30:11.3   2:09.4  161.6 
227Teresa BarfordfIsenhurst Rowers II 30:17.1   2:09.8  160.1 
228Peta RobinsonFDiamonds I 30:17.6   2:09.8  159.9 
229Luther JonesMDiamonds VIII 30:17.7   2:09.8  159.9 
230james hootonMDiamonds VIII 30:20.9   2:10.1  159.1 
231Julie DrakeFSub 7 V 30:21.1   2:10.1  159.0 
232Derek MorozMThe Chain Pullers I 30:23.0   2:10.2  158.5 
233Steen BjerreMDiamonds IX 30:24.7   2:10.3  158.1 
234Rebecca TerryFForum Flyers I 30:26.9   2:10.5  157.5 
235Marie PageFRed Line Rowers I 30:27.7   2:10.6  157.3 
236Larry D'AndreaMDiamonds IX 30:29.6   2:10.7  156.8 
237Paivi TormaFDiamonds II 30:30.4   2:10.7  156.6 
238Tony FletcherMDiamonds IX 30:34.6   2:11.0  155.5 
239Petra HudsonFIsenhurst Rowers II 30:35.8   2:11.1  155.2 
240Eddie McSharryMSub 7 XI 30:37.4   2:11.2  154.8 
241Dan FarmerMForum Flyers V 30:37.7   2:11.3  154.7 
242Jill Hugessen.FDiamonds III 30:46.8   2:11.9  152.5 
243Paul CullingtonMDiamonds X 30:49.1   2:12.1  151.9 
244Tom BlaylockmDiamonds VII 30:49.3   2:12.1  151.9 
245kathleenh FFfForum Flyers II 30:50.4   2:12.2  151.6 
246Rick BaykomForum Flyers VI 30:51.7   2:12.3  151.3 
247neil262mForum Flyers VI 30:52.8   2:12.3  151.0 
248Peter WoodMDiamonds X 30:53.2   2:12.4  150.9 
249Giles StewartmDiamonds VIII 30:53.5   2:12.4  150.8 
250Simon CrampinmDiamonds IX 30:54.5   2:12.5  150.6 
251Kevin LivesleyMThe Chain Pullers I 30:55.0   2:12.5  150.5 
252Vitor VilarMAge Without Limits I 30:56.8   2:12.6  150.0 
253FunkyrowerMGee Crew II 31:04.1   2:13.2  148.3 
254Peter W StrawmAge Without Limits I 31:04.4   2:13.2  148.2 
255Tamara PelletFSub 7 VI 31:04.5   2:13.2  148.2 
256Stacey DenyerFTeam Oarsome III 31:06.8   2:13.3  147.6 
257Sheena PatelFForum Flyers III 31:10.0   2:13.6  146.9 
258AMNW Chris PMMercian Nordic Walking I 31:11.1   2:13.7  146.6 
259Paul DaymDiamonds X 31:14.4   2:13.9  145.8 
260Erica GranucciFSub 7 VII 31:16.9   2:14.1  145.3 
261Richard WebstermDiamonds X 31:20.6   2:14.3  144.4 
262AMNW Stu BMMercian Nordic Walking I 31:22.9   2:14.5  143.9 
263Kai BierbaßMDiamonds XI 31:25.5   2:14.7  143.3 
264Ana WfFree Spirits II 31:30.6   2:15.0  142.1 
265Zoe OsborneFIsenhurst Rowers II 31:42.3   2:15.9  139.5 
266Andy LeemFitness Matters VII 31:50.2   2:16.4  137.8 
267Suzanne WittenbrinkfForum Flyers IV 31:51.6   2:16.5  137.5 
268Bluebell31FSub 7 VIII 31:55.1   2:16.8  136.7 
269Sue BaldockfIsenhurst Rowers II 32:01.1   2:17.2  135.5 
270NZ - Lisa BerrymanFTe Waka Aotearoa I 32:02.6   2:17.3  135.1 
271Susan YoungFSub 7 IX 32:08.1   2:17.7  134.0 
272clareburrellfFree Spirits III 32:13.3   2:18.1  132.9 
273Tish ReidF#TokyRow I 32:14.2   2:18.2  132.7 
274AMNW Pauline DemelFMercian Nordic Walking I 32:15.5   2:18.3  132.5 
275Sophie BudgenfIsenhurst Rowers III 32:17.4   2:18.4  132.1 
276Philip PricemFree Spirits V 32:17.4   2:18.4  132.1 
277Lorene SmithfDiamonds IV 32:21.4   2:18.7  131.3 
278P-SARGEmFree Spirits V 32:30.0   2:19.3  129.5 
279Anne-Marie Riccardi-CowlingFSub 7 X 32:30.1   2:19.3  129.5 
280Roy TullerMDiamonds XI 32:33.7   2:19.6  128.8 
281ObeseManRowingM#TokyRow I 32:37.0   2:19.8  128.1 
282Ingrid ErmlerFFree Spirits IV 32:37.7   2:19.8  128.0 
283Murphy PepperMAge Without Limits II 32:41.9   2:20.1  127.2 
284Lee HitchMDiamonds XI 32:46.2   2:20.4  126.3 
285Rita RisleyfGee Crew I 32:50.0   2:20.7  125.6 
286Ian HodgeMSub 7 XII 32:51.2   2:20.8  125.4 
287Graham WoodleyMForum Flyers VI 32:51.4   2:20.8  125.4 
288Jane O'Connor.FDiamonds V 32:52.4   2:20.9  125.2 
289Alexander RizenkoMDiamonds XII 32:56.2   2:21.2  124.4 
290MuckolFDiamonds VI 33:00.2   2:21.4  123.7 
291Tassana LandyfSub 7 V 33:02.6   2:21.6  123.2 
292Lawrence BraulMDiamonds XII 33:10.2   2:22.2  121.8 
293Glenn HortonMDiamonds XII 33:12.2   2:22.3  121.5 
294Helen MiddletonFDiamonds VII 33:22.3   2:23.0  119.6 
295JRip48MDiamonds XIII 33:22.7   2:23.1  119.6 
296Fleur BlanfordfIsenhurst Rowers III 33:24.8   2:23.2  119.2 
297Gel ForderfDiamonds VIII 33:38.8   2:24.2  116.7 
298Ian NimmomGee Crew II 33:41.7   2:24.4  116.2 
299Annette EdwardsFTeam Oarsome III 33:44.3   2:24.6  115.8 
300Polli Heh SchildgeFDiamonds IX 33:49.9   2:25.0  114.8 
301Sabrina RasmussenfForum Flyers V 33:50.2   2:25.0  114.8 
302beverley laundryfDiamonds X 33:51.8   2:25.1  114.5 
303Brit HaugsengFFitness Matters IV 33:56.9   2:25.5  113.6 
304Stefan LedinmDiamonds XI 34:03.3   2:26.0  112.6 
305Mary SwanbergFDiamonds XI 34:07.6   2:26.3  111.9 
306Gail McTFThe Chain Pullers I 34:15.0   2:26.8  110.7 
307Rachel RileyFIsenhurst Rowers III 34:35.3   2:28.2  107.5 
308Jack GilmoremForum Flyers VI 34:43.2   2:28.8  106.2 
309AMNWEsmeBfMercian Nordic Walking I 34:43.6   2:28.8  106.2 
310Tanya BoschFDiamonds XII 34:48.1   2:29.2  105.5 
311AMNWPatTFMercian Nordic Walking II 34:55.9   2:29.7  104.3 
312Barnsley BobMDiamonds XIII 35:00.8   2:30.1  103.6 
313Anne P ShoreFDiamonds XIII 35:04.0   2:30.3  103.1 
314Steve PlattmDiamonds XII 35:14.6   2:31.0  101.6 
315Judy WilmotFDiamonds XIII 35:28.1   2:32.0  99.6 
316Jo MarleyFDiamonds XIV 35:32.1   2:32.3  99.1 
317Susan D FFCFFirm Fitness II 35:44.3   2:33.2  97.4 
318Nigel SalsburymDiamonds XIII 35:45.9   2:33.3  97.2 
319David PixtonMDiamonds XIV 36:07.1   2:34.8  94.4 
320Sue McCormickfDiamonds XIV 36:19.7   2:35.7  92.7 
321Sarah GarrettFRed Line Rowers II 36:30.3   2:36.5  91.4 
322Heather PowellfSub 7 VI 36:51.2   2:37.9  88.8 
323AMNWSusanRichardsFMercian Nordic Walking II 36:55.8   2:38.3  88.3 
324Siobhan AherneFDiamonds XIV 36:56.4   2:38.3  88.2 
325Anna Rae GreenFForum Flyers VI 36:59.6   2:38.5  87.8 
326Chris ClarkefIsenhurst Rowers III 37:28.3   2:40.6  84.5 
327Janet LawtonFFree Spirits V 37:42.8   2:41.6  82.9 
328Roger BurrellmFree Spirits V 37:48.2   2:42.0  82.3 
329Linda VoorheesfForum Flyers VII 38:26.4   2:44.7  78.3 
330AMNW Carol GoodefMercian Nordic Walking II 39:37.9   2:49.9  71.4 
331Alex McGeefFirm Fitness II 40:32.0   2:53.7  66.8 
332Sue MatherfDiamonds XIV 41:02.3   2:55.9  64.3 
333AMNWAnnMasonfMercian Nordic Walking II 41:12.3   2:56.6  63.6 
334Heather SaundersFDiamonds XV 42:25.1   3:01.8  58.3 
335Sandra ChapmanfDiamonds XV 43:22.2   3:05.9  54.5 
336AMNW LohitPmMercian Nordic Walking II 43:56.6   3:08.3  52.4 
337Carole SergeantFFree Spirits V 54:59.3   3:55.7  26.7 
1
52 pts
MAD I 24:32.1
Jack Trimble (H)
Patrick Hall (H)
Roy Jones (H)
Freddie H lwt (L)
Bianca Piloseno MAD (F)
2
51 pts
Sub 7 I 25:01.7
Ian Fisher (H)
Andrew Morley (H)
Lewin2 (H)
Bergur Jensen (L)
Benita Clausen (F)
3
50 pts
Fitness Matters I 25:08.5
Tim Perkins FM (H)
Joshua Flood FM (H)
BlanksbyFM (H)
Alastair Peake FM (L)
Laura Tingle (F)
4
49 pts
Sub 7 II 25:24.1
Ben Jago (H)
Dylan Dragswiek (H)
Mark Fountaine (H)
James Howard (L)
Mirella McGee (F)
5
48 pts
The Delivery Room I 25:34.0
Ian Gallagher TDR (H)
Dan Winney TDR (H)
..IDR TDW (H)
Alex Winser TDR (L)
Anna Lwt (F)
6
47 pts
Sub 7 III 25:54.3
Warren Matthews (H)
Alan Denby (H)
Matt Dickie (H)
Glyn Lloyd (L)
Jackie Hamer (F)
7
46 pts
Team Oarsome I 25:55.2
Cameron Wharram (H)
Ade Peel TO x1 (H)
Carl A Raisen (H)
Gregory Cook (L)
Janette Lowe (F)
8
45 pts
Red Line Rowers I 26:16.4
Giles Clarke (RLR) (H)
Keith Darby (L)
meurice robinson RLR (L)
Leif Hagen (L)
Marie Page (F)
9
44 pts
MAD II 26:23.9
Simon Handley (H)
Pete Marston (H)
Bradley Perry french (L)
Rod Chinn (L)
Charlotte Pigg (F)
10
43 pts
Sub 7 IV 26:29.4
Rob Phillips (H)
Simon M Harrison (H)
Ian Wilde (H)
Paul Morton (L)
Amon SUB7 IRC (F)
11
42 pts
Fitness Matters II 26:30.4
Loic Shalbetter (H)
tony walpole (H)
Paul Nuttall (H)
Justin Nickel FM (L)
Louise Barber1409 (F)
12
41 pts
Free Spirits I 26:35.7
sjoerd plagmeijer (H)
Matthew Leonard (H)
Kevinhorne44 (H)
Claudius (L)
Lesley Duffy (F)
13
40 pts
FIRT I 26:46.3
Vgueret (H)
Sanjuan aip-perpignan (H)
Mercier (L)
Bertrand (L)
Sabine Patissier (F)
14
39 pts
Fitness Matters III 26:54.2
Josh Skversky FM (H)
Morten Haugseng (H)
Mark Whiteman (H)
B McAuley (L)
Claudia.Vicars (F)
15
38 pts
Te Waka Aotearoa I 26:54.7
NZ - Andy Tomlinson (H)
Graham Sims (H)
NZ - Ross Smith (H)
NZ - Alex Nicholson (L)
NZ - Lisa Berryman (F)
16
37 pts
The Delivery Room II 27:05.5
Richard SA (H)
Matthew James Fuller (H)
Ryan McCormack TDR (H)
Karl Hoods TDR (L)
Deidre W (F)
17
36 pts
Forum Flyers I 27:08.8
MartinB FF (H)
Marc Wilson (H)
Nigel Farmer (H)
Spike (L)
Rebecca Terry (F)
18
35 pts
Firm Fitness I 27:13.7
Matthew Doll (H)
Justin Esposito (H)
Scott Royal (H)
Paul Timmons FFC (L)
Heather K Kenton (F)
19
34 pts
Team Oarsome II 27:18.1
Dave Chmilowskyj (H)
Troy Frerichs (H)
Peter Clowes (H)
Matt Newman (L)
Tereza Horejsova (F)
20
33 pts
Isenhurst Rowers I 27:32.6
Jonty Eyres (H)
Graham French (H)
Andy Osborne (H)
Gary Smith (L)
Sue Ellery (F)
21
32 pts
Diamonds I 27:32.7
Jack Sanderson (H)
Russ Stewart (H)
Jeremy Martin (H)
Dave Jubb (L)
Peta Robinson (F)
22
31 pts
Sub 7 V 27:46.6
Casey Clarke (H)
Kevin Carter (H)
Jorn Gunnar Kleven (H)
Tassana Landy (L)
Julie Drake (F)
23
30 pts
Gee Crew I 27:52.0
Harbour Rat (H)
Andy Parkes (H)
Rouge (H)
Tony Lorrimer (L)
Rita Risley (F)
24
29 pts
Forum Flyers II 27:56.8
harrythehamster (H)
Allan Hallberg (H)
Jon Sarche (H)
Will Haskell (L)
kathleenh FF (F)
25
28 pts
Fitness Matters IV 27:57.8
Patrik Gustafsson (H)
James Clarke (H)
Kevin James FM (H)
Marc Charman FM (L)
Brit Haugseng (F)
26
27 pts
Diamonds II 28:04.2
Ken s (H)
Mike Winn (H)
Robert Henman (H)
LeoD OConnor (L)
Paivi Torma (F)
27
26 pts
Free Spirits II 28:07.5
Steve Smith (H)
Crushy (H)
Spidermac (L)
Chris Newberry (L)
Ana W (F)
28
25 pts
Diamonds III 28:32.4
Rich Enners (H)
Graham Spittle (H)
Peter B. Mitchell (H)
Neil Little (L)
Jill Hugessen. (F)
29
24 pts
Forum Flyers III 28:33.7
Richard Wolf (H)
Steve Ockerby (H)
Frank Noorlander (H)
Marc Voorhees (L)
Sheena Patel (F)
30
23 pts
Red Line Rowers II 28:40.9
Paul Sands (H)
Rowland Hills (RLR) (H)
Russell Jones (H)
Bezza RLR (L)
Sarah Garrett (F)
31
22 pts
Free Spirits III 28:49.4
Peter Weiss (H)
Paul Gould (H)
Liefcat (H)
Jon P Taylor (L)
clareburrell (F)
32
21 pts
Sub 7 VI 28:58.3
Harry Wilkes (H)
John Walsh (H)
Matt Rawlinson (H)
Heather Powell (L)
Tamara Pellet (F)
33
20 pts
Diamonds IV 29:08.7
Pete Williams (H)
Tim Montogomery (H)
Jim McCarthy (H)
Paul.Lee (L)
Lorene Smith (F)
34
19 pts
Forum Flyers IV 29:29.8
James Slipetz (H)
Chris Whale (H)
macroth (H)
Josh Voorhees (L)
Suzanne Wittenbrink (F)
35
18 pts
Diamonds V 29:41.6
Mike Forder (H)
Wayne E. Calvert (H)
Donn Raseman (H)
Paul Freeman (L)
Jane O'Connor. (F)
36
17 pts
Free Spirits IV 29:57.4
Iain (L)
David Plumb (L)
Allen H (L)
Peter Tullett (L)
Ingrid Ermler (F)
37
16 pts
Team Oarsome III 30:07.0
Andy Burrows (H)
Arlene Wade (TO) (L)
.Jules Bailey (F)
Stacey Denyer (F)
Annette Edwards (F)
38
15 pts
Diamonds VI 30:20.0
Derek Kerr (H)
Andrew Peet (H)
Steve Delfs (H)
MBrownjohn (L)
Muckol (F)
39
14 pts
Isenhurst Rowers II 30:27.3
Phil Rayner (H)
Teresa Barford (L)
Sue Baldock (L)
Petra Hudson (F)
Zoe Osborne (F)
40
13 pts
Forum Flyers V 30:40.3
Kyle Voorhees (H)
Lindsayh (H)
Dan Farmer (H)
Terry FF (L)
Sabrina Rasmussen (F)
41
12 pts
Diamonds VII 30:46.8
Peter Schmitt. (H)
OldFatherTyne (H)
Will Wright (H)
Tom Blaylock (L)
Helen Middleton (F)
42
11 pts
Diamonds VIII 31:03.1
Greg Pawlas (H)
Luther Jones (H)
james hooton (H)
Giles Stewart (L)
Gel Forder (F)
43
10 pts
Diamonds IX 31:14.6
Steen Bjerre (H)
Larry D'Andrea (H)
Tony Fletcher (H)
Simon Crampin (L)
Polli Heh Schildge (F)
44
9 pts
Diamonds X 31:37.8
Paul Cullington (H)
Peter Wood (H)
Paul Day (L)
Richard Webster (L)
beverley laundry (F)
45
8 pts
Mercian Nordic Walking I 31:49.2
AMNW Ian Northcott (H)
AMNW Chris P (H)
AMNW Stu B (H)
AMNWEsmeB (L)
AMNW Pauline Demel (F)
46
7 pts
Diamonds XI 32:59.2
Kai Bierbaß (H)
Roy Tuller (H)
Lee Hitch (H)
Stefan Ledin (L)
Mary Swanberg (F)
47
6 pts
Forum Flyers VI 33:15.7
Graham Woodley (H)
Rick Bayko (L)
neil262 (L)
Jack Gilmore (L)
Anna Rae Green (F)
48
5 pts
Diamonds XII 33:52.2
Alexander Rizenko (H)
Lawrence Braul (H)
Glenn Horton (H)
Steve Platt (L)
Tanya Bosch (F)
49
4 pts
Diamonds XIII 34:56.3
JRip48 (H)
Barnsley Bob (H)
Nigel Salsbury (L)
Anne P Shore (F)
Judy Wilmot (F)
50
3 pts
Diamonds XIV 37:11.5
David Pixton (H)
Sue McCormick (L)
Sue Mather (L)
Jo Marley (F)
Siobhan Aherne (F)
51
2 pts
Free Spirits V 39:03.5
Philip Price (L)
P-SARGE (L)
Roger Burrell (L)
Janet Lawton (F)
Carole Sergeant (F)
52
1 pt
Mercian Nordic Walking II 39:19.7
AMNW LohitP (L)
AMNW Carol Goode (L)
AMNWAnnMason (L)
AMNWPatT (F)
AMNWSusanRichards (F)
53Germania I24:07.8
Tobias Stöhr (H)
 
54GARAGEATHLETE I24:21.3
Jason Marshall (H)
Justin Farina (H)
Matej Čambal (H)
 
55DLC Gidea Park I24:48.3
Jon Melson (H)
 
56C2TweetCrew I25:42.2
Kay Bieri (H)
 
57Ergo Ergo Sum I26:00.9
Nick Thomas (H)
Dingeman Wiertz (L)
 
58Paddy Power I26:41.0
Andy Benko (H)
Guillaume Dauphin (H)
davidmarks (H)
Joe A Keating (L)
59FIRT II27:00.4
patrice CORNUT (L)
 
60Sub 7 VII27:22.6
Jake Luce (H)
Matt Gill (H)
Richard Pruce (H)
Erica Granucci (F)
61Fitness Matters V27:33.9
Jake Dolphin (H)
Stephen Perkins FM (H)
Roger Rogne (H)
Adam Yalowich (L)
62Te Waka Aotearoa II27:47.6
NZ - Aaron Donelley (H)
 
63Sub 7 VIII27:48.4
Martin Still (H)
Paul Peppard (H)
Mike Pearce (MPx) (H)
Bluebell31 (F)
64Empty the Tanks I27:55.0
Kevin Hillman (H)
 
65Sub 7 IX28:07.0
Steven Richie (H)
Mac McNelis (H)
Richard Steventon (H)
Susan Young (F)
66Red Line Rowers III28:08.6
David Gigg (H)
Sam Willetts (H)
George Bingham (RLR LWT) (L)
Richard Milner (L)
67Sub 7 X28:33.1
Glynn Powell (H)
Martin Kelly (H)
Rob Palk Sub 7 (H)
Anne-Marie Riccardi-Cowling (F)
68ESPRIT I28:34.3
ESPRIT - Audrey Ferec (F)
 
69Fitness Matters VI28:41.0
Chris Barclay (H)
Tako Lootsma (H)
Paul Febery FM (L)
Graham Johnson (L)
70Sub 7 XI28:45.6
Robert Jones (H)
Eric August (H)
Eddie McSharry (H)
 
71Red Line Rowers IV29:12.9
Graham Fisher RLR Leeds (H)
 
72Ski Erg I29:17.5
macrothski (H)
 
73The Italian Team I29:18.1
LauraH21 Ghiò (L)
 
74Age Without Limits I29:56.0
Steve Motzny (H)
Gaffer (H)
Vitor Vilar (H)
Peter W Straw (L)
75Gee Crew II30:30.8
Andy Cole (H)
Andy Flewitt (H)
Funkyrower (H)
Ian Nimmo (L)
76The Chain Pullers I31:01.5
Derek Moroz (H)
Kevin Livesley (H)
Rich Insley (L)
Gail McT (F)
77Fitness Matters VII31:50.2
Andy Lee (L)
 
78#TokyRow I32:25.6
ObeseManRowing (H)
Tish Reid (F)
 
79Age Without Limits II32:41.9
Murphy Pepper (H)
 
80Sub 7 XII32:51.2
Ian Hodge (H)
 
81Isenhurst Rowers III34:26.4
Sophie Budgen (L)
Chris Clarke (L)
Fleur Blanford (F)
Rachel Riley (F)
82Firm Fitness II35:15.7
David Keck (H)
Alex McGee (L)
Susan D FFC (F)
 
83Forum Flyers VII38:26.4
Linda Voorhees (L)
 
84Diamonds XV42:53.6
Sandra Chapman (L)
Heather Saunders (F)
 

The Cross-Team Challenge is not supported or endorsed by Concept 2.
Site written by Daren Chandisingh. Please post any problems on the UK Concept 2 forum.

Valid XHTML 1.0 Transitional